Regional Weather Roundup
Issued by NWS

Home | Current Version | Previous Version | Graphics & Text | Print | Product List | Glossary On
Versions: 1 2 3 4 5 6 7 8 9 10 11 12 13 14 15 16 17 18 19 20 21 22 23 24 25 26 27
000
ASUS45 KBOU 130210
RWRCO

WEATHER ROUNDUP FOR COLORADO
NATIONAL WEATHER SERVICE DENVER/BOULDER CO
700 PM MST TUE DEC 12 2017

NOTE: "FAIR" INDICATES FEW OR NO CLOUDS BELOW 12000 FEET WITH NO
SIGNIFICANT WEATHER AND/OR OBSTRUCTIONS TO VISIBILITY.

COZ001>005-013-030-031-130300-
...NORTHWEST COLORADO...

CITY           SKY/WX    TMP DP  RH WIND       PRES   REMARKS
CRAIG          FAIR      21  16  81 CALM      30.35S
HAYDEN         FAIR      28  16  60 E10       30.36S WCI  19
MEEKER         FAIR      26   9  48 E3        30.35S
RABBIT EARS PA FAIR      30   9  40 W12G18    30.43F WCI  21
STEAMBOAT SPGS FAIR      31  17  57 CALM      30.36R
WALDEN         FAIR      25   7  46 SE9       30.36F WCI  15
$$

COZ006>008-011-130300-
...WEST CENTRAL VALLEYS...

CITY           SKY/WX    TMP DP  RH WIND       PRES   REMARKS
GRAND JUNCTION FAIR      38   9  30 N9        30.33S
MONTROSE       FAIR      31   9  39 SE8       30.37S WCI  23
EAGLE          FAIR      25  15  66 E5        30.41S WCI  19
RIFLE          FAIR      32  11  41 SE5       30.35R WCI  27
DELTA          FAIR      39   7  26 CALM      30.35S
NUCLA          FAIR      36   5  27 E9        30.37S
$$

COZ017>023-064>068-130300-
...SOUTHWEST COLORADO...

CITY           SKY/WX    TMP DP  RH WIND       PRES   REMARKS
DURANGO        FAIR      34   4  28 N7        30.33R WCI  28
CORTEZ         FAIR      24   2  38 NE8       30.34R WCI  15
PAGOSA SPRINGS FAIR      31  -2  24 CALM      30.36S
TELLURIDE      FAIR      36   7  29 SE8       30.44S
WOLF CREEK PAS FAIR      32   1  27 NW3       30.55S
$$

COZ009-010-012-014-032>034-037-058>063-130300-
...CENTRAL COLORADO...

CITY           SKY/WX    TMP DP  RH WIND       PRES   REMARKS
ASPEN          FAIR      30  14  51 SW6       30.39S WCI  24
BUENA VISTA    FAIR      42  12  29 NW18      30.32F
COPPER MTN     NOT AVBL
BERTHOUD PASS  FAIR      21  10  63 NW29G37   30.43F WCI   3
COTTONWOOD PAS FAIR      43   9  24 W9G16     30.39S
GUNNISON       FAIR      25   8  48 CALM      30.39S
KREMMLING      FAIR      21  14  73 CALM      30.41S
LEADVILLE      FAIR      24  10  55 N6        30.41F WCI  17
MONARCH PASS   FAIR      30   9  40 W10       30.58F WCI  21
SALIDA         FAIR      44   5  20 NW9       30.38F
SUNLIGHT       FAIR      32   1  27 NW6       30.51S WCI  26
WILKERSON PASS FAIR      36   3  25 NW8       30.45S
$$

COZ069>075-130300-
...SAN LUIS VALLEY/SANGRE DE CRISTO MOUNTAINS...

CITY           SKY/WX    TMP DP  RH WIND       PRES   REMARKS
ALAMOSA        FAIR      29   4  34 N3        30.33R
DEL NORTE      FAIR      28   1  32 W13       30.36S WCI  17
LA VETA PASS   FAIR      32   5  32 SW21        N/A  WCI  20
SAGUACHE       FAIR      36   5  27 NW13      30.34F
$$

COZ035-036-038>040-130300-
...NORTHERN COLORADO FRONT RANGE...

CITY           SKY/WX    TMP DP  RH WIND       PRES   REMARKS
DENVER INTL AP FAIR      51  11  20 W9        30.15F
DMNS CITY PARK NOT AVBL
AURORA         PTCLDY    49  12  23 SW7       30.17S
FRONT RANGE AP PTCLDY    43  12  28 W8        30.16F
ERIE MUNI ARPT FAIR      41  11  28 W7        30.21S
BOULDER MUN AP FAIR      55  10  16 SW7       30.15F
CENTENNIAL     FAIR      48  14  25 W7        30.18S
BROOMFIELD     CLEAR     55   9  15 W23       30.17S
FORT COLLINS   FAIR      48  17  29 W7        30.13F
LONGMONT       FAIR      41  14  33 NW5       30.16F
$$

COZ041-046-047-076>085-087-088-130300-
...PIKES PEAK/PALMER DIVIDE AND SOUTHERN FOOTHILLS...

CITY           SKY/WX    TMP DP  RH WIND       PRES   REMARKS
COLO. SPRINGS  FAIR      39  10  30 N6        30.21F
A. F. ACADEMY  FAIR      34   8  34 N10       30.22S WCI  26
SCHRIEVER AFB  FAIR      43   8  23 NW3       30.21F
CHEYENNE MTN   FAIR      45  11  25 CALM      30.18F
ELLICOTT         N/A    N/A N/A N/A CALM      30.19F
FALCON         FAIR      33   7  34 W9        30.23F WCI  25
FORT CARSON    FAIR      44  12  27 NW7       30.18F
LIMON          FAIR      29  11  47 NW8       30.16R WCI  21
MONUMENT HILL  FAIR      37  10  32 SW7       30.25S
CANON CITY     FAIR      43  14  31 NW7       30.18S
WALSENBURG     FAIR      39  10  30 SW10      30.19F
TRINIDAD       FAIR      41   9  26 W12       30.20S
$$

COZ042>045-048>051-090-091-130300-
...NORTHEAST COLORADO...

CITY           SKY/WX    TMP DP  RH WIND       PRES   REMARKS
GREELEY ARPT   FAIR      38  13  35 NW8       30.12F
AKRON          FAIR      44  13  28 MISG      30.08F
BURLINGTON     FAIR      39  15  37 SW9       30.08F
WRAY           FAIR      41  14  33 W12       30.05S
YUMA           FAIR      36  14  41 W9        30.06F
STERLING       FAIR      37  14  38 SW7       30.04F
HOLYOKE        FAIR      43  18  36 W12       30.03F
FORT MORGAN    FAIR      48  13  25 W12       30.09F
$$

COZ086-089-092>099-130300-
...SOUTHEAST COLORADO...

CITY           SKY/WX    TMP DP  RH WIND       PRES   REMARKS
PUEBLO         FAIR      39   9  29 CALM      30.14F
LA JUNTA       FAIR      48  12  23 SW10      30.11F
LAMAR          FAIR      36  10  34 S12       30.10F
SPRINGFIELD      N/A     35  12  38 W3        30.15S
$$




USA.gov is the U.S. government's official web portal to all federal, state and local government web resources and services.